Mount Vernon, IL

4:22 PM CDT on September 20, 2017 (GMT -0500)
Mount Vernon

Weather History for KMVN - November, 2014

Change the Weather History Date:

Monday, November 24, 2014

  Actual Average Record
Temperature  
Mean Temperature 46 °F -  
Max Temperature 57 °F 50 °F 66 °F (2006)
Min Temperature 35 °F 32 °F 15 °F (2013)
Degree Days  
Heating Degree Days 19    
Moisture  
Dew Point 33 °F    
Average Humidity 68    
Maximum Humidity 88    
Minimum Humidity 53    
Precipitation  
Precipitation 0.00 in - - ()
Sea Level Pressure  
Sea Level Pressure 29.66 in    
Wind  
Wind Speed 12 mph (WSW)    
Max Wind Speed 29 mph    
Max Gust Speed 38 mph    
Visibility 10 miles    
Events      
Averages and records for this station are not official NWS values.
T = Trace of Precipitation, MM = Missing Value Source: NWS Daily Summary

Daily Weather History Graph

Daily Weather History Graph

Search for Another Location

Airport or City:

Trip Planner

Search our weather history database for the weather conditions in past years. The results will help you decide how hot, cold, wet, or windy it might be!

Date:

Astronomy

Nov. 24, 2014 Rise Set
Actual Time 6:46 AM CST 4:37 PM CST
Civil Twilight 6:17 AM CST 5:06 PM CST
Nautical Twilight 5:45 AM CST 5:38 PM CST
Astronomical Twilight 5:13 AM CST 6:10 PM CST
Moon 8:39 AM CST (11/24) 6:58 PM CST (11/24)
Length of Visible Light 10h 48m
Length of Day
9h 51m
Waxing Crescent, 6% of the Moon is Illuminated
Nov 24
Waxing Crescent
Nov 29
First Quarter
Dec 6
Full
Dec 14
Last Quarter
Dec 21
New

Hourly Weather History & Observations

Time (CST) Temp. Windchill Dew Point Humidity Pressure Visibility Wind Dir Wind Speed Gust Speed Precip Events Conditions
12:15 AM 55.4 °F - 51.8 °F 88% 29.26 in 10.0 mi SSW 10.4 mph - N/A   Overcast
12:35 AM 55.4 °F - 51.8 °F 88% 29.24 in 10.0 mi SSW 10.4 mph - N/A   Overcast
12:55 AM 55.4 °F - 51.8 °F 88% 29.24 in 10.0 mi South 11.5 mph - N/A   Overcast
1:15 AM 57.2 °F - 53.6 °F 88% 29.23 in 10.0 mi South 12.7 mph - N/A   Overcast
1:35 AM 57.2 °F - 53.6 °F 88% 29.23 in 10.0 mi SW 12.7 mph 24.2 mph N/A   Overcast
1:55 AM 55.4 °F - 51.8 °F 88% 29.23 in 10.0 mi SSW 10.4 mph - N/A   Mostly Cloudy
2:15 AM 57.2 °F - 51.8 °F 82% 29.23 in 8.0 mi SSW 18.4 mph 23.0 mph N/A   Overcast
2:35 AM 55.4 °F - 51.8 °F 88% 29.22 in 8.0 mi SSW 17.3 mph 29.9 mph N/A   Overcast
2:55 AM 55.4 °F - 48.2 °F 77% 29.23 in 10.0 mi SW 15.0 mph - N/A   Overcast
3:15 AM 55.4 °F - 48.2 °F 77% 29.23 in 10.0 mi South 11.5 mph - N/A   Mostly Cloudy
3:35 AM 55.4 °F - 51.8 °F 88% 29.23 in 10.0 mi SSW 23.0 mph 26.5 mph N/A   Overcast
3:55 AM 55.4 °F - 50.0 °F 82% 29.24 in 10.0 mi SSW 16.1 mph - N/A   Overcast
4:15 AM 50.0 °F - 42.8 °F 76% 29.29 in 7.0 mi West 10.4 mph 25.3 mph N/A   Overcast
4:35 AM 46.4 °F 40.7 °F 39.2 °F 76% 29.32 in 10.0 mi West 12.7 mph 25.3 mph N/A   Overcast
4:55 AM 46.4 °F 40.4 °F 39.2 °F 76% 29.34 in 10.0 mi West 13.8 mph 23.0 mph N/A   Overcast
5:15 AM 46.4 °F 39.2 °F 39.2 °F 76% 29.36 in 10.0 mi West 18.4 mph 27.6 mph N/A   Overcast
5:35 AM 44.6 °F 37.8 °F 35.6 °F 71% 29.39 in 10.0 mi West 15.0 mph 25.3 mph N/A   Overcast
5:55 AM 42.8 °F 34.5 °F 35.6 °F 76% 29.42 in 10.0 mi West 18.4 mph 25.3 mph N/A   Overcast
6:15 AM 41.0 °F 33.1 °F 33.8 °F 76% 29.44 in 10.0 mi West 15.0 mph 24.2 mph N/A   Overcast
6:35 AM 39.2 °F 31.6 °F 32.0 °F 75% 29.47 in 10.0 mi West 12.7 mph 24.2 mph N/A   Overcast
6:55 AM 39.2 °F 31.2 °F 30.2 °F 70% 29.50 in 10.0 mi West 13.8 mph 26.5 mph N/A   Overcast
7:15 AM 39.2 °F 31.2 °F 30.2 °F 70% 29.53 in 10.0 mi WSW 13.8 mph 19.6 mph N/A   Overcast
7:35 AM 39.2 °F 31.2 °F 30.2 °F 70% 29.54 in 10.0 mi WSW 13.8 mph 19.6 mph N/A   Overcast
7:55 AM 39.2 °F 30.8 °F 32.0 °F 75% 29.57 in 10.0 mi WSW 15.0 mph 18.4 mph N/A   Overcast
8:15 AM 39.2 °F 30.8 °F 32.0 °F 75% 29.58 in 10.0 mi WSW 15.0 mph 21.9 mph N/A   Overcast
8:35 AM 39.2 °F 30.5 °F 33.8 °F 81% 29.59 in 10.0 mi SW 16.1 mph - N/A   Overcast
8:55 AM 41.0 °F 32.2 °F 33.8 °F 76% 29.60 in 10.0 mi WSW 18.4 mph 25.3 mph N/A   Overcast
9:15 AM 42.8 °F 34.5 °F 33.8 °F 70% 29.62 in 10.0 mi WSW 18.4 mph 29.9 mph N/A   Overcast
9:35 AM 42.8 °F 32.7 °F 32.0 °F 66% 29.64 in 10.0 mi WSW 27.6 mph 33.4 mph N/A   Overcast
9:55 AM 44.6 °F 35.3 °F 30.2 °F 57% 29.66 in 10.0 mi WSW 26.5 mph 38.0 mph N/A   Mostly Cloudy
10:15 AM 42.8 °F 33.8 °F 28.4 °F 57% 29.68 in 10.0 mi WSW 21.9 mph 29.9 mph N/A   Mostly Cloudy
10:35 AM 41.0 °F 32.5 °F 28.4 °F 61% 29.70 in 10.0 mi West 17.3 mph 27.6 mph N/A   Overcast
10:55 AM 41.0 °F 30.0 °F 28.4 °F 61% 29.70 in 10.0 mi WSW 28.8 mph 34.5 mph N/A   Overcast
11:15 AM 41.0 °F 34.3 °F 26.6 °F 57% 29.70 in 10.0 mi West 11.5 mph 27.6 mph N/A   Overcast
11:35 AM 41.0 °F 33.1 °F 26.6 °F 57% 29.71 in 10.0 mi WSW 15.0 mph 26.5 mph N/A   Overcast
11:55 AM 41.0 °F 32.8 °F 26.6 °F 57% 29.71 in 10.0 mi WSW 16.1 mph 24.2 mph N/A   Overcast
12:15 PM 42.8 °F 35.8 °F 28.4 °F 57% 29.72 in 10.0 mi West 13.8 mph 24.2 mph N/A   Overcast
12:35 PM 42.8 °F 34.3 °F 28.4 °F 57% 29.72 in 10.0 mi WSW 19.6 mph 26.5 mph N/A   Overcast
12:55 PM 42.8 °F 35.4 °F 28.4 °F 57% 29.73 in 10.0 mi WSW 15.0 mph 28.8 mph N/A   Overcast
1:15 PM 42.8 °F 35.8 °F 28.4 °F 57% 29.73 in 10.0 mi West 13.8 mph 23.0 mph N/A   Overcast
1:35 PM 44.6 °F 38.1 °F 28.4 °F 53% 29.74 in 10.0 mi WSW 13.8 mph 19.6 mph N/A   Overcast
1:55 PM 44.6 °F 39.7 °F 28.4 °F 53% 29.74 in 10.0 mi West 9.2 mph 18.4 mph N/A   Overcast
2:15 PM 44.6 °F 40.2 °F 30.2 °F 57% 29.76 in 10.0 mi WSW 8.1 mph - N/A   Overcast
2:35 PM 44.6 °F 39.2 °F 30.2 °F 57% 29.77 in 10.0 mi WSW 10.4 mph 19.6 mph N/A   Overcast
2:55 PM 44.6 °F 39.7 °F 30.2 °F 57% 29.78 in 10.0 mi West 9.2 mph - N/A   Overcast
3:15 PM 44.6 °F 40.2 °F 30.2 °F 57% 29.80 in 10.0 mi West 8.1 mph - N/A   Overcast
3:35 PM 44.6 °F 39.7 °F 30.2 °F 57% 29.81 in 10.0 mi West 9.2 mph - N/A   Mostly Cloudy
3:55 PM 44.6 °F 40.7 °F 28.4 °F 53% 29.82 in 10.0 mi West 6.9 mph - N/A   Partly Cloudy
4:15 PM 42.8 °F 38.6 °F 28.4 °F 57% 29.83 in 10.0 mi West 6.9 mph - N/A   Clear
4:35 PM 42.8 °F 38.0 °F 26.6 °F 53% 29.85 in 10.0 mi West 8.1 mph - N/A   Clear
4:55 PM 41.0 °F 36.4 °F 26.6 °F 57% 29.86 in 10.0 mi West 6.9 mph - N/A   Clear
5:15 PM 39.2 °F 35.0 °F 26.6 °F 61% 29.88 in 10.0 mi WNW 5.8 mph - N/A   Clear
5:35 PM 39.2 °F 35.9 °F 26.6 °F 61% 29.90 in 10.0 mi West 4.6 mph - N/A   Scattered Clouds
5:55 PM 39.2 °F 35.9 °F 26.6 °F 61% 29.90 in 10.0 mi West 4.6 mph - N/A   Overcast
6:15 PM 39.2 °F 35.9 °F 26.6 °F 61% 29.91 in 10.0 mi WSW 4.6 mph - N/A   Mostly Cloudy
6:35 PM 37.4 °F 33.8 °F 24.8 °F 60% 29.92 in 10.0 mi WSW 4.6 mph - N/A   Mostly Cloudy
6:55 PM 37.4 °F 34.9 °F 28.4 °F 70% 29.93 in 10.0 mi WSW 3.5 mph - N/A   Overcast
7:15 PM 39.2 °F - 26.6 °F 61% 29.94 in 10.0 mi Calm Calm - N/A   Overcast
7:35 PM 37.4 °F - 28.4 °F 70% 29.94 in 10.0 mi Calm Calm - N/A   Overcast
7:55 PM 37.4 °F - 28.4 °F 70% 29.95 in 10.0 mi Calm Calm - N/A   Overcast
8:15 PM 37.4 °F - 28.4 °F 70% 29.95 in 10.0 mi Calm Calm - N/A   Overcast
8:35 PM 39.2 °F - 28.4 °F 65% 29.96 in 10.0 mi Calm Calm - N/A   Overcast
8:55 PM 37.4 °F 34.9 °F 26.6 °F 65% 29.96 in 10.0 mi WSW 3.5 mph - N/A   Overcast
9:15 PM 37.4 °F - 26.6 °F 65% 29.96 in 10.0 mi Calm Calm - N/A   Overcast
9:35 PM 39.2 °F 37.0 °F 26.6 °F 61% 29.97 in 10.0 mi West 3.5 mph - N/A   Overcast
9:55 PM 39.2 °F 37.0 °F 26.6 °F 61% 29.97 in 10.0 mi West 3.5 mph - N/A   Overcast
10:15 PM 37.4 °F 33.8 °F 26.6 °F 65% 29.98 in 10.0 mi West 4.6 mph - N/A   Overcast
10:35 PM 37.4 °F 34.9 °F 26.6 °F 65% 29.99 in 10.0 mi West 3.5 mph - N/A   Overcast
10:55 PM 37.4 °F - 26.6 °F 65% 30.00 in 10.0 mi Calm Calm - N/A   Mostly Cloudy
11:15 PM 35.6 °F 32.8 °F 26.6 °F 70% 30.00 in 10.0 mi WSW 3.5 mph - N/A   Clear
11:35 PM 35.6 °F 32.8 °F 26.6 °F 70% 30.00 in 10.0 mi WSW 3.5 mph - N/A   Clear
11:55 PM 37.4 °F 31.4 °F 26.6 °F 65% 30.01 in 10.0 mi WSW 8.1 mph - N/A   Clear